Starlink 11442

operational
NORAD ID: 62885 Int'l Des: 2025-024 Owner: SPXS Country: US Constellation: starlink
LEOCIRCULAR

Starlink 11442について

説明を読み込み中...

リアルタイム位置

3D地球を読み込み中...

次回通過

高度履歴

Altitude vs Time

uPlot chart will show altitude changes over time

軌道要素

1 62885U 25024G 25259.42613731 .00261322 00000-0 19694-2 0 9999
2 62885 43.0014 151.4852 0003673 275.5168 84.5280 15.70924203 36067
Epoch: Sep 16, 2025 • Age: 14 hours

現在のステータス

高度 355.6 km
速度 7.70 km/s
衛星直下点 13.45°N, 52.68°W
打ち上げ日 Feb 4, 2025
運用期間 0.6 years
タイプ internet

技術仕様

分類 Payload
質量 960.00 kg
乾燥質量 910.00 kg
総質量 960.00 kg
長さ 0.30 m
直径 4.10 m
スパン 29.00 m
形状 Box + pan
製造者 SPXS
バスタイプ Starlink V2MD
フェーズステータス In Orbit
所有者/国 SPXS/US

大規模コンステレーション

Loading constellations...